RH
48 46 46 44 53 43 35 29 30 34 33 34 30 29 29 32 37 46 42 32 34 34 30 33 34 35 36 35 34 34 28 26 28 31 30 28 23 18 14 14 17 21 32 23 8 8 8 8 6
52 50 48 64 48 40 32 32 34 32 40 28 25 22 24 34 40 42 38 33 34 36 30 32 33 34 38 36 34 36 34 29 29 32 33 30 25 22 17 14 17 20 54 12 9 9 9 9 9
59 55 73 58 48 37 32 31 30 40 28 37 39 35 43 50 39 41 36 36 38 39 30 32 33 35 38 37 36 37 38 34 28 29 32 32 28 24 20 17 16 18 18 14 12 11 9 9 9
70 66 73 61 45 40 34 33 30 38 36 34 38 39 40 40 41 42 35 36 39 38 32 31 32 34 38 38 37 38 39 36 34 33 32 34 31 26 22 21 18 16 17 19 20 21 21 21 21
79 79 70 61 51 40 38 38 37 36 40 39 34 36 47 30 31 39 38 36 43 42 36 32 32 32 38 37 38 39 39 38 35 38 39 36 37 37 31 24 22 22 21 21 20 21 21 21 21
92 82 68 57 51 45 41 42 41 41 39 37 35 37 46 31 31 29 39 43 45 46 44 36 32 32 34 39 38 39 40 40 39 39 41 41 42 38 40 41 38 31 26 24 24 24 24 24 24
95 82 69 54 45 46 42 43 43 39 38 36 36 38 49 35 31 30 29 30 43 45 45 38 34 33 32 38 39 39 40 40 40 40 38 43 43 44 43 40 36 41 42 42 41 38 36 34 32
90 85 70 58 47 44 44 48 45 43 39 37 35 38 43 42 32 31 29 28 26 32 43 45 39 35 34 33 40 40 40 41 42 42 41 37 44 44 45 45 44 41 42 43 42 42 44 44 44
75 85 68 58 50 46 46 48 49 41 38 34 35 39 44 45 34 32 31 31 32 38 41 40 41 41 37 34 38 42 42 42 42 43 44 42 41 42 45 46 46 47 46 47 48 48 46 45 44
56 78 62 57 52 56 51 51 42 32 27 36 26 28 33 39 37 34 32 30 36 40 40 40 39 41 44 38 36 41 43 43 44 44 45 46 45 44 43 45 47 48 47 48 48 49 50 50 49
45 56 61 52 53 60 58 52 42 43 37 37 40 43 22 32 38 36 33 31 29 33 44 46 40 36 39 46 40 38 44 45 45 46 46 46 46 46 46 46 47 48 49 48 48 49 50 51 51
72 62 50 52 52 56 55 50 46 46 39 44 46 36 22 22 36 38 37 35 33 30 27 40 46 40 42 48 49 43 41 44 46 46 47 47 46 46 47 47 47 47 48 49 49 49 51 51 52
68 65 64 68 54 43 44 52 48 50 49 38 32 28 24 23 30 37 37 37 36 34 31 30 34 42 41 43 45 52 47 44 51 54 55 48 47 47 47 47 47 47 48 48 49 49 50 52 53
82 74 78 73 55 47 44 59 53 44 59 37 34 31 26 23 24 29 33 35 36 35 35 33 37 39 47 48 44 45 51 57 60 59 58 58 50 48 48 48 48 48 48 48 49 48 49 51 54
95 74 81 72 67 51 49 57 64 41 48 39 36 31 28 24 21 22 25 28 33 40 39 36 37 35 35 39 44 42 49 51 51 53 57 56 56 52 50 50 49 49 48 49 49 50 49 50 53
88 85 77 68 52 50 52 49 48 43 34 32 34 28 26 24 20 17 17 18 25 30 32 36 37 38 35 32 35 38 36 37 42 41 48 53 57 57 55 54 53 52 50 50 51 52 51 52 52
89 62 62 54 56 61 40 46 44 48 30 20 25 28 22 19 18 15 13 13 15 23 34 39 43 43 41 39 36 37 38 36 36 40 41 42 50 57 57 57 59 61 57 54 54 54 53 53 53
62 57 44 42 63 52 64 61 50 44 31 18 17 25 20 14 13 11 11 11 11 12 14 24 37 43 46 43 42 35 38 42 42 41 37 41 44 49 54 59 62 61 61 60 58 58 56 56 56
48 51 39 46 51 58 60 56 55 58 24 16 15 21 30 16 16 15 8 8 9 9 10 12 14 26 37 47 49 42 36 42 46 44 41 39 41 46 50 52 59 60 60 60 62 59 58 58 58
67 52 50 54 60 53 50 62 63 42 22 24 33 28 22 15 13 11 10 11 10 11 11 11 12 13 16 24 36 45 28 30 35 40 43 41 38 41 49 53 54 58 66 68 65 62 62 60 61
65 58 48 56 59 53 61 58 38 29 20 17 16 15 14 14 13 12 11 12 13 13 14 14 14 14 15 16 18 22 26 16 20 22 28 33 39 43 43 49 57 59 60 65 65 65 63 66 66
62 69 64 82 70 43 58 24 56 43 35 30 25 22 20 17 18 17 17 16 16 17 18 19 21 22 22 21 20 21 23 23 23 26 25 25 33 43 51 53 56 64 66 65 63 62 62 65 69
76 70 90 87 74 76 61 51 43 45 48 43 37 32 29 26 26 25 27 26 26 26 24 22 20 18 16 16 16 18 24 28 30 29 28 31 32 29 29 54 72 67 71 71 77 68 65 60 70
86 81 90 87 82 76 62 49 43 42 47 57 38 31 27 25 26 28 29 30 30 29 27 23 20 17 16 16 16 17 17 17 18 20 20 20 24 41 46 43 47 60 68 72 81 82 80 77 72
92 92 85 90 96 60 65 62 37 39 45 54 58 37 35 35 33 30 29 28 25 22 19 16 16 16 17 18 19 20 22 24 26 28 28 28 27 26 38 54 58 55 52 52 60 72 76 76 77
98 89 68 63 63 52 60 49 37 44 42 50 41 39 36 34 29 24 22 24 25 24 25 26 27 29 30 30 31 31 30 32 34 35 35 34 34 33 34 40 61 69 67 63 62 61 68 72 73
94 98 84 56 47 44 40 41 44 41 40 42 42 39 34 32 30 32 36 39 40 39 39 38 38 34 31 31 38 42 40 37 37 39 40 42 43 44 43 42 42 45 56 68 71 72 70 70 70
99 95 90 75 75 50 37 31 28 36 37 41 46 49 49 49 48 49 49 47 44 43 40 35 24 18 15 11 11 18 34 44 48 46 44 45 46 48 49 50 48 48 52 66 73 76 82 83 79
87 90 82 81 61 46 27 22 30 30 34 42 55 53 51 55 56 54 51 46 43 40 39 26 14 10 10 10 11 13 16 19 27 40 52 57 54 54 58 57 54 51 47 44 43 58 78 82 79
89 77 72 63 68 60 61 37 28 48 55 57 51 48 59 63 62 56 50 46 40 34 28 17 13 12 11 10 10 12 14 18 19 21 25 34 57 70 70 70 70 64 58 55 45 44 43 50 66
Wind_Speed
18 15 12 10 6 8 13 11 8 5 6 9 12 11 9 12 6 9 8 13 14 12 12 10 7 6 7 9 10 10 10 9 9 8 8 8 8 8 7 7 6 7 7 9 8 7 6 6 4
20 16 13 8 11 16 15 14 7 7 9 11 9 11 10 6 12 12 8 11 18 15 16 13 10 7 6 6 8 9 10 10 8 8 8 8 8 8 8 8 7 5 8 8 6 6 6 5 4
21 18 10 11 18 21 14 10 11 10 7 7 6 13 8 7 13 11 9 10 16 17 18 16 14 10 8 6 6 7 8 10 8 7 8 8 9 8 8 8 7 7 7 6 6 6 5 5 4
24 19 14 18 18 19 16 6 11 10 10 14 12 6 10 11 12 9 10 9 18 17 20 18 15 12 10 7 5 4 7 9 7 8 8 8 8 8 8 8 8 8 8 6 5 5 5 4 3
28 19 21 21 24 19 18 8 9 12 8 7 16 7 6 10 12 12 10 9 11 15 16 17 17 15 12 10 7 4 3 6 6 7 7 8 8 9 10 9 8 8 8 7 7 6 6 5 5
29 24 22 29 23 23 20 16 10 11 8 6 16 6 9 12 12 12 12 10 10 11 12 15 17 17 16 13 11 9 3 2 3 3 4 5 6 6 7 8 9 9 8 8 7 6 6 5 5
30 27 30 27 24 22 23 19 16 13 11 9 9 9 9 16 15 14 12 14 12 11 13 14 16 17 18 16 15 13 9 4 2 1 1 2 3 3 5 6 5 5 6 7 7 6 6 6 6
32 27 30 31 28 24 20 19 19 18 14 15 15 9 11 18 16 14 13 14 16 17 14 13 17 18 19 20 17 15 14 11 9 6 4 1 2 2 3 3 2 2 2 3 4 4 4 5 5
38 30 34 33 30 26 18 20 16 17 17 18 12 18 18 18 17 16 14 13 16 17 16 15 14 16 19 21 21 19 18 16 13 11 9 7 5 4 5 5 5 4 3 3 3 3 3 3 4
39 32 35 25 25 25 21 22 15 21 23 18 22 22 22 20 19 17 15 14 15 16 16 17 17 17 18 21 22 22 21 20 17 14 13 12 11 10 8 9 9 8 7 7 7 7 7 7 6
38 34 29 22 26 25 22 21 15 17 16 17 16 15 26 25 23 20 19 16 15 18 19 18 18 17 19 19 22 23 23 21 20 18 16 16 16 14 14 13 13 13 13 11 11 10 10 10 11
23 31 19 27 30 32 27 16 18 18 15 16 17 25 21 26 28 26 23 20 19 19 20 22 22 21 19 19 20 23 24 22 21 20 21 20 20 19 18 17 17 17 16 16 16 15 14 14 14
31 14 25 20 32 30 24 20 20 17 19 26 25 22 23 26 28 28 26 24 22 23 23 22 22 24 24 21 20 20 23 24 23 23 23 25 24 23 23 21 21 21 20 19 19 19 19 18 18
23 19 18 21 26 26 27 19 23 26 18 24 25 23 24 28 28 29 28 27 27 27 28 26 24 23 24 22 21 22 25 26 26 25 26 27 28 27 28 27 26 25 24 22 22 22 23 22 21
12 23 14 21 23 27 24 26 28 28 21 26 27 25 26 28 30 30 30 31 30 29 31 31 27 25 24 26 25 25 24 24 26 27 28 27 29 32 31 31 30 30 28 27 27 25 26 26 25
14 18 22 20 24 28 28 23 17 25 27 29 25 25 27 29 31 30 31 33 34 35 34 31 30 29 28 29 28 27 27 28 29 30 31 29 28 31 33 33 33 33 32 31 30 29 28 28 28
22 18 24 16 24 22 28 14 18 18 19 17 25 26 29 30 32 32 34 34 35 35 35 36 35 35 33 33 33 34 33 34 32 34 34 34 33 32 32 32 31 33 35 34 33 32 32 31 30
26 28 21 26 15 26 24 22 15 22 22 21 25 22 23 29 31 33 34 35 38 39 40 41 41 41 39 39 40 40 39 38 37 37 37 35 37 37 38 36 35 35 36 34 34 33 33 33 33
17 23 18 17 21 15 22 18 19 20 21 23 24 22 22 26 27 31 36 36 37 38 38 39 41 43 43 44 45 49 43 41 41 40 39 38 36 36 38 39 40 40 41 38 36 34 34 35 35
9 19 19 14 20 21 14 17 18 19 20 22 25 26 27 29 31 33 32 35 36 38 39 40 41 43 44 45 46 49 48 44 43 43 43 43 41 39 37 38 39 42 41 41 40 37 36 36 36
14 16 18 8 17 13 11 17 15 22 23 26 27 26 26 28 30 33 34 34 35 36 36 37 38 39 41 42 45 47 51 47 46 45 46 46 47 46 44 42 41 39 41 41 38 39 38 37 37
16 14 14 10 11 10 10 4 15 18 20 22 23 24 25 27 29 30 31 31 31 32 33 33 33 34 35 36 38 40 42 44 42 41 42 43 45 48 48 47 45 43 44 43 43 42 42 42 42
12 18 12 9 8 3 8 6 10 14 15 16 18 19 20 21 23 24 24 23 24 24 24 23 24 25 26 28 30 34 38 40 41 42 42 43 43 43 47 51 53 51 50 48 47 50 49 44 45
15 18 13 9 3 5 12 12 13 16 16 15 14 14 14 14 16 18 20 20 21 21 21 23 24 26 27 28 29 31 33 34 36 37 38 38 40 44 46 44 50 55 56 55 53 52 51 48 45
19 18 7 5 4 3 10 9 2 14 14 12 11 12 11 10 11 13 15 18 21 24 26 27 28 29 32 33 34 35 35 36 36 36 37 38 39 40 47 46 45 47 48 51 55 56 56 53 50
20 20 6 6 6 6 7 8 3 13 15 16 12 13 12 13 13 14 16 19 22 25 28 31 33 35 37 38 39 39 39 38 37 37 37 38 37 37 39 45 47 47 46 45 47 52 56 53 52
28 19 7 1 3 2 8 6 10 17 18 15 14 13 12 13 15 18 20 22 24 27 29 30 30 32 33 34 38 40 41 41 40 39 38 38 37 37 38 40 41 42 47 50 50 48 49 53 53
12 19 8 3 4 5 7 7 6 19 20 19 13 10 11 14 17 20 21 23 25 26 27 27 26 24 24 24 24 27 32 35 38 41 41 41 40 39 38 36 35 38 36 41 46 47 47 46 47
11 8 7 4 2 3 2 4 6 12 19 18 9 11 14 17 19 20 21 23 25 24 24 22 19 17 16 18 19 20 22 26 29 33 37 41 43 42 41 40 40 38 38 38 38 42 48 50 49
13 10 12 5 4 4 1 1 4 13 16 12 9 14 15 15 16 18 19 20 21 21 20 16 14 14 15 16 18 20 22 23 24 26 28 31 34 37 39 39 39 44 43 43 42 41 41 44 46
Wind_Direction
221 220 224 234 235 231 235 226 216 219 210 197 206 182 198 205 214 219 209 211 211 205 202 187 176 124 98 72 57 51 45 45 47 45 43 42 41 41 45 43 40 46 73 87 82 82 85 90 111
220 217 218 219 229 228 231 222 226 208 201 200 210 202 201 199 219 218 192 203 208 208 197 190 194 174 146 99 64 47 38 36 40 42 39 40 42 44 47 54 56 58 97 68 66 68 67 66 81
220 214 213 226 233 233 228 206 216 203 203 160 172 165 182 207 196 198 192 201 201 208 198 196 197 189 172 136 87 63 46 30 34 35 35 35 37 41 48 56 60 60 68 63 57 55 57 59 58
223 210 215 219 226 225 223 235 202 199 194 190 171 174 194 193 184 189 195 191 204 200 204 203 202 202 192 172 128 77 54 29 32 39 41 41 43 46 51 55 61 67 73 73 71 65 62 64 67
205 206 222 229 231 228 220 230 189 187 190 177 175 197 189 182 186 181 182 194 194 203 212 213 211 207 203 198 175 153 75 46 28 34 40 45 48 51 57 64 70 74 79 80 76 74 70 67 64
207 207 222 229 232 228 227 216 210 198 205 199 184 183 207 201 190 189 194 190 201 210 217 219 221 217 211 207 203 187 182 81 48 27 28 30 40 47 52 55 62 69 72 72 69 65 63 60 52
208 214 225 233 233 231 223 223 214 207 213 211 208 180 214 208 206 205 203 211 212 213 222 217 219 223 220 215 213 207 200 195 237 302 356 341 9 18 38 45 51 58 65 65 67 65 62 60 56
214 216 229 230 230 232 226 222 216 219 220 229 208 196 210 215 213 214 214 215 219 227 229 227 224 225 225 222 222 221 214 213 210 228 240 263 277 303 301 330 9 38 44 45 40 34 33 29 27
210 215 225 226 228 229 223 222 223 219 213 225 225 205 205 212 207 214 215 220 215 217 226 236 239 236 232 229 227 227 225 224 218 220 223 225 229 257 268 274 282 284 292 288 308 314 319 334 343
209 213 219 222 230 231 226 222 216 229 226 228 229 229 223 221 213 218 224 225 214 213 222 233 243 243 242 237 233 231 230 231 232 227 230 235 237 241 255 262 263 264 271 273 279 287 289 291 294
216 219 220 222 224 221 215 226 218 226 224 222 232 231 233 229 224 223 226 226 223 222 220 227 234 243 244 243 242 239 237 238 241 239 234 242 244 246 251 254 260 267 267 270 271 276 279 285 285
213 221 215 226 226 225 222 221 223 219 214 211 207 224 236 232 230 228 228 232 239 247 241 231 236 242 244 243 242 243 244 244 247 249 248 245 249 249 250 254 258 261 266 270 271 273 275 277 281
216 217 212 211 226 231 229 221 218 227 225 226 234 237 235 231 231 232 235 239 241 248 249 247 241 243 245 247 246 247 247 248 249 253 256 255 252 256 257 255 257 258 260 265 270 274 275 276 278
221 203 213 214 227 231 230 224 225 222 217 235 233 237 236 234 233 234 236 241 246 247 250 249 247 248 245 245 248 249 249 250 252 256 259 260 257 255 258 258 258 259 260 262 265 270 274 274 275
208 201 210 212 225 233 237 234 235 231 236 240 244 240 240 237 238 238 240 243 243 239 242 247 250 254 251 244 242 246 250 256 260 262 261 260 259 260 258 258 258 259 258 258 259 261 268 271 272
201 195 217 219 226 230 231 240 252 250 245 245 246 245 243 239 239 241 241 242 241 243 249 251 252 252 251 250 247 249 257 260 262 266 263 261 261 261 261 262 262 261 259 258 259 260 262 266 269
201 204 208 211 220 225 232 241 233 250 236 237 239 245 243 241 239 242 245 246 247 246 246 247 246 250 252 253 251 251 256 259 265 263 265 264 260 261 262 264 264 267 265 261 260 262 263 264 265
201 207 212 210 233 219 228 235 238 233 246 243 240 243 243 240 243 243 246 243 242 242 244 244 245 247 250 253 255 254 255 260 263 265 266 265 263 263 261 263 265 265 267 266 265 264 264 265 264
216 213 214 211 227 216 223 237 232 242 244 245 243 241 245 246 245 243 243 247 250 252 252 252 252 252 251 252 255 262 260 260 262 265 267 263 261 263 266 265 263 263 265 266 266 265 263 261 263
210 198 197 200 224 230 229 234 234 245 250 250 244 238 239 241 242 247 248 250 252 254 256 255 256 257 259 259 260 264 268 264 264 264 264 266 267 264 263 266 266 265 264 263 265 266 267 265 264
197 191 196 218 215 219 222 254 243 245 244 246 248 245 243 242 242 245 247 249 252 256 259 260 262 263 264 265 266 266 270 273 270 269 268 267 267 265 264 261 264 265 265 264 265 265 265 266 264
192 188 197 193 181 217 212 226 193 235 232 238 242 242 241 239 241 246 250 252 255 258 261 264 266 267 269 270 269 269 268 271 274 273 271 266 263 261 260 261 260 261 263 264 265 266 267 264 263
184 196 183 185 204 237 221 247 189 216 219 225 232 234 236 239 241 243 247 251 255 258 263 267 271 271 271 270 267 266 266 269 273 274 273 269 268 263 260 255 256 257 257 257 260 264 265 265 263
191 184 183 191 184 240 221 217 199 208 210 208 225 228 229 232 235 237 242 248 254 260 265 268 271 272 272 273 272 271 271 271 272 274 275 274 269 265 264 260 256 257 257 258 257 259 259 261 261
187 169 158 187 195 228 187 208 241 195 183 200 204 217 219 223 232 240 250 257 261 265 268 270 272 274 275 273 271 269 268 270 271 272 274 276 276 273 268 264 260 258 257 256 256 257 259 258 259
187 193 222 204 189 174 183 219 222 212 194 215 212 216 223 232 247 257 262 266 269 271 272 273 274 275 275 275 275 274 273 273 275 276 277 277 276 275 271 267 263 262 261 262 261 259 256 259 259
190 199 217 322 81 201 187 199 234 223 202 211 212 222 236 252 265 274 280 282 282 281 280 280 279 278 276 275 272 271 272 273 273 274 275 275 275 274 272 271 271 265 262 259 257 258 260 259 258
174 200 187 201 199 217 181 216 205 205 204 203 210 234 267 281 285 286 288 289 289 288 287 284 282 281 279 278 276 273 272 272 271 270 270 270 270 269 268 267 266 269 267 264 259 257 258 260 260
189 188 197 195 247 292 197 146 198 213 195 191 216 264 289 294 295 295 293 289 290 288 284 281 278 278 279 280 278 275 272 272 273 273 274 274 272 270 271 270 267 264 268 268 266 262 259 259 261
196 214 209 225 204 221 332 30 162 175 180 209 255 288 294 296 298 300 298 296 291 285 281 275 274 277 281 284 286 288 288 287 286 286 285 282 277 275 273 271 270 267 265 264 267 269 266 263 262